CAPE
0 0 0 0 0 0 0 0 0 0 0 0 0 0 0 2 330 1890 1502 1335 1357 1492 1209 660 753 978 1281 1172 899 484 161 63 0 12 157 262 250 583 668 728 339 192 226 261 167 202 219 119 12
0 0 0 0 0 0 0 0 0 0 0 0 0 0 0 291 942 1481 1761 1187 1613 1582 1291 790 831 999 1179 1248 974 594 428 136 44 155 231 215 270 646 740 806 445 154 93 91 74 20 38 25 0
0 0 0 0 0 0 0 0 0 0 0 0 0 0 0 1091 1117 1714 2078 1347 1648 1434 1066 1087 891 1121 1266 1286 1078 738 575 220 101 144 206 228 314 668 766 778 549 61 84 270 243 118 6 0 0
0 0 0 0 0 0 0 0 6 0 0 0 0 0 0 3 531 1751 1722 1422 1540 1188 694 1197 855 1052 1303 1310 1164 915 651 165 117 180 173 190 277 341 401 619 448 129 189 506 402 279 215 94 22
0 0 0 0 0 0 0 0 0 0 0 0 0 0 0 578 735 1666 1332 1377 1147 748 611 743 811 989 1217 1424 1106 880 497 142 199 219 142 99 127 185 452 438 605 464 166 574 510 418 444 344 415
0 0 0 0 0 0 0 0 0 0 0 0 0 0 1 389 708 1850 1276 1357 988 636 744 343 911 984 1105 1148 1024 857 529 282 329 187 110 77 96 345 367 378 377 437 265 206 371 270 227 230 82
0 0 0 0 0 0 0 0 0 0 0 0 0 0 19 27 1011 1927 1353 1326 919 681 511 240 373 848 1036 988 880 753 599 548 472 353 184 58 89 223 214 202 278 224 140 83 13 9 11 8 0
0 0 0 0 0 0 0 0 0 0 0 0 0 0 0 390 573 1956 1406 1318 940 724 439 199 37 121 409 928 869 724 635 569 483 263 81 11 73 162 145 131 168 146 47 0 0 0 0 0 0
0 0 0 0 0 0 0 0 0 0 0 0 0 0 5 296 373 1517 1583 1376 1079 764 551 215 49 3 0 2 467 481 595 546 354 260 145 48 0 145 319 74 148 86 61 2 0 0 0 0 0
0 0 0 0 0 0 0 0 0 0 0 0 0 0 0 122 265 1239 1890 1557 1337 995 699 355 188 134 83 71 169 3 23 18 11 2 58 0 0 22 53 97 233 95 92 58 2 0 0 0 0
0 0 0 0 0 0 0 0 0 0 0 0 0 0 0 41 330 733 1833 1725 1568 1252 958 545 429 420 284 229 338 168 169 59 5 4 47 0 0 0 0 80 246 165 179 187 78 17 0 0 0
0 0 0 0 0 0 0 0 0 0 0 0 0 0 0 0 112 637 1490 1966 1810 1593 1319 889 763 805 635 469 589 360 423 386 316 290 226 45 72 111 25 9 161 133 128 180 42 89 63 2 4
0 0 0 0 0 0 0 0 0 0 0 0 0 0 0 0 1 227 1565 2018 2125 1820 1672 1279 1139 1196 1193 1103 871 680 666 634 693 798 978 537 681 368 310 80 42 22 20 1 9 8 21 13 23
0 0 0 0 0 0 0 0 0 0 0 0 0 0 0 0 0 94 1611 2304 2372 2168 2001 1756 1591 1694 1534 1510 1414 1135 1042 1010 1050 955 1106 1236 1115 938 812 726 508 313 171 75 7 0 7 11 28
0 0 0 0 0 0 0 0 0 0 0 0 0 0 0 0 0 0 401 2278 2925 2553 2481 2232 2034 2151 2095 2002 2249 1931 1660 1576 1235 1054 1319 1547 1489 1334 1281 1259 850 585 475 332 213 124 26 20 21
0 0 0 0 0 0 0 0 0 0 0 0 0 0 0 0 0 0 0 2062 2870 2689 2831 2711 2308 2749 2564 2467 2433 2317 2159 1824 1674 1533 1646 1746 1707 1542 1710 1402 860 749 709 466 235 146 44 0 0
0 0 0 0 0 0 0 0 0 0 0 0 0 0 0 0 0 0 0 1710 3222 2948 2596 2865 2547 2390 2558 2829 2522 2342 2326 2145 2076 1915 1683 1722 1867 1734 1810 1476 1035 1421 984 693 413 340 257 78 64
0 0 0 0 0 0 0 0 0 0 0 0 0 0 0 0 0 0 0 836 3073 2907 2814 2879 2721 2503 2896 2721 2695 2355 2187 2241 2069 1905 1674 1624 1840 1790 1727 1461 1423 1529 1380 1194 1184 1192 1149 1104 614
0 0 0 0 0 0 0 0 0 0 0 0 0 0 0 0 0 0 21 517 2865 2943 2763 2953 2864 2952 2922 2996 2568 2512 2053 2202 2011 1703 1680 1963 1738 1776 1790 1624 1579 1855 2006 1876 1905 1680 1311 1227 1134
0 0 0 0 0 0 0 0 0 0 0 0 0 0 0 0 0 0 5 1089 1880 2944 2631 2840 2984 3172 3101 2900 2667 2339 2316 1944 1776 1690 1922 1690 1542 1696 1761 1672 1920 1842 1488 1303 1176 1158 1191 1063 1090
0 0 0 0 0 0 0 0 0 0 0 0 0 0 0 0 0 0 427 1683 2212 2586 2872 2705 2969 3152 2922 2599 2658 2706 2316 1940 1952 1796 1766 1808 1785 1819 1952 1699 1594 1518 1391 1087 1120 1137 1113 957 858
12 0 1 2 0 0 0 0 0 0 0 0 0 0 0 0 0 0 426 1957 2591 2674 2770 2832 2787 3001 2919 2942 2671 2482 2125 1844 1905 1719 1775 1681 1502 1550 1391 1314 1188 1166 1161 1393 1296 1003 860 791 767
3 2 4 15 6 0 0 0 0 0 0 0 0 0 0 0 0 0 11 532 1700 2887 2782 2780 2777 2557 2729 2739 2371 2332 2083 2076 1960 1764 1532 1436 985 760 658 735 657 620 684 616 555 618 589 404 540
12 20 24 34 24 1 0 0 0 0 0 0 0 0 0 0 0 0 0 36 975 1907 2619 2599 2592 2655 2258 2291 2452 2294 2526 1950 1678 1642 1295 1113 876 407 252 218 250 151 132 111 98 192 242 229 299
10 31 28 28 17 0 0 0 0 0 0 0 0 0 0 0 0 0 0 754 1240 1414 1773 2040 2031 1807 1967 1781 1989 2116 2021 1968 1618 1405 1058 652 218 36 0 4 0 0 0 0 0 0 0 0 0
36 38 39 3 0 0 0 0 0 0 0 0 0 0 0 0 0 0 64 513 972 1426 1522 1670 1657 1545 1402 1196 1073 1225 1266 871 527 291 135 25 1 0 0 0 0 0 0 0 0 0 0 0 0
48 63 2 0 0 2 3 63 276 0 0 2 0 0 0 0 21 325 475 571 952 1067 1171 1188 1060 807 634 467 331 189 98 36 8 0 0 0 0 0 0 0 0 0 0 0 0 0 0 0 0
96 12 41 13 9 9 24 20 7 0 2 0 0 0 2 34 24 129 501 695 718 673 561 443 378 271 173 60 10 0 0 0 0 0 0 0 0 0 0 0 0 0 0 0 0 0 0 0 0
63 65 75 15 20 31 29 32 62 0 0 0 1 2 4 6 8 58 180 181 171 202 141 45 19 1 0 0 0 0 0 0 0 0 0 0 0 0 0 0 0 0 0 0 0 0 0 0 0
59 42 32 9 0 14 18 155 99 7 4 7 5 9 12 6 1 15 22 9 5 4 2 0 0 0 0 0 0 0 0 0 0 0 0 0 0 0 0 0 0 0 0 0 0 0 0 0 5
CIN
-0 -0 -0 -0 -0 -0 -0 -0 -0 -0 -0 -0 -0 -0 -0 -30 -15 -21 -121 -163 -198 -253 -319 -440 -402 -320 -240 -233 -268 -342 -443 -510 -0 -569 -405 -314 -295 -145 -99 -92 -172 -220 -186 -161 -217 -207 -187 -223 -348
-0 -0 -0 -0 -0 -0 -0 -0 -0 -0 -0 -0 -0 -0 -0 -16 -69 -111 -114 -182 -202 -268 -340 -384 -402 -326 -267 -233 -263 -323 -332 -433 -497 -392 -335 -325 -263 -122 -88 -61 -137 -246 -286 -259 -274 -334 -314 -312 -0
-0 -0 -0 -0 -0 -0 -0 -0 -0 -0 -0 -0 -0 -0 -0 -10 -96 -46 -131 -183 -195 -274 -358 -348 -403 -304 -248 -224 -232 -280 -287 -381 -421 -380 -339 -298 -219 -106 -74 -63 -107 -312 -282 -167 -162 -234 -193 -0 -0
-0 -0 -0 -0 -0 -0 -0 -0 -21 -0 -0 -0 -0 -0 -0 -31 -129 -108 -178 -192 -217 -263 -356 -385 -416 -326 -247 -224 -207 -228 -265 -384 -398 -345 -329 -301 -239 -200 -177 -118 -154 -263 -224 -121 -131 -172 -202 -241 -276
-0 -0 -0 -0 -0 -0 -0 -0 -2 -0 -0 -0 -0 -0 -0 -110 -153 -126 -177 -172 -225 -278 -334 -436 -415 -333 -256 -192 -216 -222 -287 -386 -345 -323 -336 -344 -302 -260 -164 -158 -111 -146 -239 -112 -130 -146 -140 -167 -143
-0 -0 -0 -0 -0 -0 -0 -0 -0 -0 -0 -0 -0 -0 -3 -113 -95 -86 -148 -147 -187 -259 -315 -468 -366 -313 -263 -229 -222 -225 -269 -311 -278 -297 -312 -340 -321 -182 -162 -153 -154 -142 -201 -223 -166 -193 -200 -206 -253
-0 -0 -0 -0 -0 -0 -0 -0 -0 -0 -0 -0 -0 -0 -14 -148 -88 -55 -117 -132 -157 -230 -339 -474 -441 -298 -251 -243 -227 -232 -247 -223 -231 -248 -294 -349 -323 -236 -238 -216 -190 -209 -245 -274 -360 -68 -360 -380 -28
-0 -0 -0 -0 -0 -0 -0 -0 -0 -0 -0 -0 -0 -0 -0 -28 -112 -49 -84 -95 -117 -201 -303 -403 -502 -446 -342 -204 -218 -221 -226 -231 -237 -299 -350 -428 -345 -283 -283 -275 -257 -270 -325 -0 -0 -0 -0 -0 -0
-0 -0 -0 -0 -0 -0 -0 -0 -0 -0 -0 -0 -0 -0 -17 -95 -116 -53 -33 -53 -68 -133 -233 -332 -414 -234 -0 -343 -303 -294 -235 -224 -258 -279 -324 -399 -0 -283 -218 -305 -268 -304 -325 -89 -0 -0 -0 -0 -0
-0 -0 -0 -0 -0 -0 -0 -0 -0 -0 -0 -0 -0 -0 -0 -90 -122 -71 -24 -32 -36 -86 -141 -233 -298 -360 -364 -378 -368 -195 -458 -202 -174 -193 -379 -0 -0 -336 -285 -275 -232 -313 -306 -344 -98 -0 -0 -0 -0
-0 -0 -0 -0 -0 -0 -0 -0 -0 -0 -0 -0 -0 -0 -0 -59 -81 -67 -25 -14 -20 -33 -59 -148 -231 -251 -239 -248 -274 -310 -300 -350 -343 -363 -358 -0 -0 -0 -0 -242 -191 -230 -250 -200 -278 -293 -56 -0 -0
-0 -0 -0 -0 -0 -0 -0 -0 -0 -0 -0 -0 -0 -0 -0 -0 -106 -61 -22 -2 -4 -6 -16 -77 -155 -178 -163 -161 -161 -189 -160 -160 -187 -201 -234 -299 -225 -176 -218 -213 -110 -172 -152 -149 -200 -142 -182 -258 -274
-0 -0 -0 -0 -0 -0 -0 -0 -0 -0 -0 -0 -0 -0 -0 -0 -12 -108 -22 -2 -3 -3 -8 -37 -98 -108 -83 -73 -93 -98 -81 -79 -66 -49 -19 -64 -16 -59 -68 -149 -144 -166 -166 -118 -167 -199 -181 -181 -191
-0 -0 -0 -0 -0 -0 -0 -0 -0 -0 -0 -0 -0 -0 -0 -0 -0 -94 -12 -2 -2 -1 -2 -12 -46 -56 -57 -18 -21 -23 -13 -11 -6 -18 -9 -14 -2 -1 -3 -16 -12 -66 -80 -110 -104 -0 -168 -121 -103
-0 -0 -0 -0 -0 -0 -0 -0 -0 -0 -0 -0 -0 -0 -0 -0 -0 -0 -49 -2 -4 -4 -3 -3 -8 -10 -10 -2 -1 -1 -2 -2 -1 -2 -2 -12 -28 -14 -3 -2 -5 -6 -13 -48 -73 -131 -132 -116 -109
-0 -0 -0 -0 -0 -0 -0 -0 -0 -0 -0 -0 -0 -0 -0 -0 -0 -0 -0 -1 -8 -2 -5 -2 -2 -5 -12 -12 -2 -2 -0 -1 -2 -2 -1 -9 -10 -19 -12 -3 -1 -1 -1 -2 -53 -85 -129 -0 -0
-0 -0 -0 -0 -0 -0 -0 -0 -0 -0 -0 -0 -0 -0 -0 -0 -0 -0 -0 -5 -2 -2 -5 -2 -4 -10 -19 -2 -1 -5 -3 -2 -3 -2 -1 -22 -0 -13 -1 -1 -1 -5 -8 -7 -31 -27 -19 -42 -15
-0 -0 -0 -0 -0 -0 -0 -0 -0 -0 -0 -0 -0 -0 -0 -0 -0 -0 -0 -9 -2 -2 -3 -1 -3 -2 -1 -1 -1 -4 -5 -1 -1 -2 -1 -1 -1 -0 -1 -1 -1 -1 -1 -1 -8 -6 -5 -3 -1
-0 -0 -0 -0 -0 -0 -0 -0 -0 -0 -0 -0 -0 -0 -0 -0 -0 -0 -94 -25 -3 -6 -1 -1 -2 -2 -3 -1 -4 -2 -10 -2 -1 -2 -1 -5 -9 -2 -1 -1 -2 -1 -0 -1 -1 -0 -1 -1 -5
-0 -0 -0 -0 -0 -0 -0 -0 -0 -0 -0 -0 -0 -0 -0 -0 -0 -0 -143 -2 -3 -2 -8 -2 -2 -1 -2 -4 -7 -2 -2 -11 -4 -5 -5 -5 -1 -1 -2 -6 -1 -0 -3 -4 -4 -2 -1 -1 -2
-3 -0 -1 -0 -0 -0 -0 -0 -0 -0 -0 -0 -0 -0 -0 -0 -0 -0 -43 -1 -2 -1 -2 -5 -2 -2 -2 -2 -4 -1 -1 -4 -1 -6 -9 -3 -1 -1 -5 -13 -12 -11 -11 -2 -3 -1 -1 -0 -10
-5 -0 -3 -4 -0 -0 -0 -0 -0 -0 -0 -0 -0 -0 -0 -0 -0 -0 -30 -0 -2 -1 -3 -2 -2 -5 -2 -4 -2 -1 -4 -3 -3 -10 -4 -4 -21 -12 -17 -35 -30 -30 -22 -2 -3 -16 -7 -1 -1
-6 -7 -9 -8 -12 -9 -0 -0 -0 -0 -0 -0 -0 -0 -0 -0 -0 -0 -118 -30 -5 -4 -5 -3 -3 -14 -19 -1 -7 -8 -2 -13 -1 -2 -33 -21 -94 -127 -130 -108 -122 -101 -47 -50 -55 -26 -24 -50 -11
-11 -11 -6 -8 -8 -13 -0 -0 -0 -0 -0 -0 -0 -0 -0 -0 -0 -0 -0 -165 -3 -1 -2 -1 -8 -2 -28 -12 -3 -3 -2 -2 -5 -6 -47 -47 -68 -211 -257 -253 -205 -253 -231 -204 -177 -89 -51 -53 -39
-18 -14 -14 -16 -16 -0 -0 -0 -0 -0 -0 -0 -0 -0 -0 -0 -0 -0 -0 -4 -7 -16 -14 -9 -17 -38 -23 -41 -11 -7 -19 -17 -39 -29 -42 -96 -187 -315 -0 -165 -0 -0 -0 -0 -0 -0 -0 -0 -0
-15 -10 -7 -1 -0 -0 -0 -0 -0 -0 -0 -0 -0 -0 -0 -0 -0 -0 -127 -5 -3 -3 -15 -37 -30 -45 -45 -91 -130 -85 -65 -104 -163 -221 -255 -315 -23 -0 -0 -0 -0 -0 -0 -0 -0 -0 -0 -0 -0
-7 -9 -9 -1 -1 -1 -9 -12 -53 -0 -0 -187 -0 -0 -16 -2 -57 -68 -61 -44 -11 -16 -32 -34 -66 -123 -152 -196 -222 -252 -293 -358 -375 -0 -0 -0 -0 -0 -0 -0 -0 -0 -0 -0 -0 -0 -0 -0 -0
-4 -11 -5 -13 -12 -13 -11 -13 -5 -0 -26 -0 -0 -0 -89 -130 -129 -68 -20 -23 -28 -67 -94 -124 -140 -180 -222 -277 -191 -0 -0 -0 -0 -0 -0 -0 -0 -0 -0 -0 -0 -0 -0 -0 -0 -0 -0 -0 -0
-14 -13 -7 -18 -17 -8 -17 -11 -2 -0 -0 -0 -0 -1 -0 -57 -69 -176 -109 -118 -130 -121 -152 -232 -206 -1 -0 -0 -0 -0 -0 -0 -0 -0 -0 -0 -0 -0 -0 -0 -0 -0 -0 -0 -0 -0 -0 -0 -0
-8 -10 -9 -18 -5 -36 -49 -24 -2 -26 -5 -0 -1 -1 -1 -1 -3 -167 -177 -21 -10 -2 -1 -0 -0 -0 -0 -0 -0 -0 -0 -0 -0 -0 -0 -0 -0 -0 -0 -0 -0 -0 -0 -0 -0 -0 -0 -0 -2
Wind_Speed
29 27 23 24 28 27 38 33 33 19 22 18 16 20 21 20 19 12 8 10 15 16 18 16 12 13 16 17 15 13 14 15 15 14 15 14 10 6 7 10 13 15 16 17 16 16 15 15 16
27 25 25 29 33 38 35 33 28 21 16 13 20 20 20 13 13 10 8 8 13 16 18 17 13 12 15 16 16 14 13 14 14 15 15 13 10 6 7 10 12 14 15 16 16 14 14 14 15
22 23 27 29 40 41 40 30 27 16 14 19 19 19 16 14 13 11 9 8 11 13 17 16 15 13 13 15 14 14 13 13 14 15 15 12 9 6 6 8 11 13 14 15 15 14 14 14 14
18 21 29 39 39 39 47 40 22 20 14 16 18 21 15 17 17 15 5 6 8 12 17 14 14 15 14 14 15 14 13 13 13 13 13 11 7 5 6 9 11 13 14 14 14 14 13 13 14
22 26 32 38 44 43 30 43 20 28 26 20 18 22 16 14 15 10 3 2 5 9 12 16 13 15 14 13 14 13 12 13 13 13 12 9 6 5 7 8 10 12 12 12 12 12 12 12 12
22 27 36 41 39 36 40 37 38 25 24 19 18 23 17 12 13 8 3 2 3 5 8 12 11 12 13 12 12 12 12 12 12 11 10 7 5 6 5 7 9 10 10 10 10 10 10 10 9
26 26 38 42 41 39 33 35 30 35 30 29 18 24 12 13 11 8 5 3 2 3 5 8 9 9 10 11 12 13 12 11 11 10 9 7 7 6 5 7 8 8 8 8 8 8 7 7 6
27 35 42 42 43 42 28 29 30 32 35 31 27 27 27 9 9 7 4 4 4 3 4 5 10 10 10 10 7 9 12 11 11 10 9 8 6 6 6 6 6 6 7 7 6 6 5 4 4
22 36 43 40 38 36 31 27 28 29 34 31 27 25 14 10 9 7 6 6 5 4 4 5 6 9 11 10 5 2 3 6 7 6 5 5 5 4 3 3 4 4 4 4 4 4 4 4 5
28 34 40 34 35 38 30 27 27 28 29 28 25 20 15 12 12 11 9 9 8 7 6 6 5 5 8 10 5 6 6 4 5 5 4 3 3 3 3 2 2 4 5 6 6 6 7 9 10
30 35 30 36 35 32 26 27 28 27 31 29 28 23 18 17 16 15 13 11 10 9 8 7 6 5 5 4 3 4 3 4 2 1 2 2 4 5 6 7 8 10 9 10 9 9 10 10 12
37 39 43 40 29 30 31 29 28 29 31 24 22 22 17 18 18 17 15 13 11 10 10 8 7 6 6 2 1 3 2 3 3 2 2 3 6 7 8 9 10 10 11 13 15 13 11 12 14
42 39 35 36 40 27 29 34 33 31 26 25 21 23 21 17 15 18 17 17 12 12 11 9 8 7 8 8 2 3 2 1 1 1 1 3 9 10 11 14 17 15 16 18 18 20 21 20 17
38 41 43 37 34 33 30 32 29 31 25 26 24 24 23 21 17 14 16 17 15 13 11 10 8 8 8 8 7 6 5 4 6 4 6 5 10 14 16 17 18 15 17 23 23 23 24 22 21
37 44 40 44 33 35 30 37 32 24 22 22 27 30 29 25 19 18 15 16 15 14 12 10 9 8 7 8 9 7 8 11 7 8 7 7 10 15 20 24 21 19 18 20 25 26 27 26 24
46 43 49 36 37 32 29 42 30 28 26 28 28 25 24 24 19 14 16 14 16 13 11 11 10 8 9 11 12 12 11 7 7 8 11 14 15 16 15 19 18 20 21 22 25 28 28 28 27
39 49 51 43 31 32 31 34 34 23 24 29 24 24 22 22 21 16 13 13 14 14 12 12 10 9 8 9 10 10 10 11 11 12 12 14 12 15 12 12 15 20 23 22 23 25 28 30 30
42 44 42 43 33 32 36 39 31 24 23 24 25 20 22 21 18 17 14 12 14 14 12 11 10 9 8 8 11 11 12 12 12 14 14 12 11 9 11 12 17 20 22 24 26 27 28 30 30
41 42 43 35 35 33 38 36 32 24 27 21 22 23 20 18 13 11 12 14 13 13 13 12 10 9 8 9 9 10 11 12 12 11 11 11 11 11 11 16 21 22 24 26 27 28 29 29 30
50 46 41 38 29 32 34 36 26 26 23 21 21 18 17 14 12 11 9 11 12 12 14 13 12 9 8 9 9 11 10 9 12 11 11 12 11 13 16 18 21 24 27 27 29 29 31 30 30
48 49 40 34 28 33 36 37 34 29 22 20 21 18 18 16 13 12 10 12 12 12 13 14 12 10 10 9 8 7 7 8 9 9 10 9 12 16 19 21 22 25 27 28 30 31 32 34 33
49 44 39 30 31 39 36 41 35 31 31 27 23 21 17 14 13 11 11 10 10 11 12 12 11 9 8 4 5 5 6 8 9 10 10 11 14 17 19 21 24 25 26 28 30 30 32 33 34
46 36 40 31 36 33 34 39 33 32 32 28 24 20 17 13 13 11 9 9 7 7 8 8 8 7 7 5 4 5 8 7 8 11 12 14 15 18 19 22 24 25 26 28 30 31 31 31 34
41 35 37 34 35 39 36 38 37 28 32 26 23 20 17 13 13 11 9 7 6 5 5 5 6 5 5 5 6 7 6 6 7 9 12 14 15 17 21 22 23 25 27 29 30 31 31 32 32
42 39 41 39 39 45 31 35 30 23 24 22 20 19 18 14 12 9 7 6 5 5 4 4 3 4 4 4 6 7 7 9 9 9 13 13 16 19 22 23 25 26 28 29 30 31 30 30 31
45 40 45 46 44 40 31 37 30 8 14 24 18 17 14 13 10 10 7 6 5 5 4 3 2 1 2 4 5 6 6 7 9 12 13 16 17 20 22 24 25 26 27 28 29 30 30 31 31
46 49 43 36 36 32 30 21 11 17 14 11 14 14 13 13 8 6 6 5 4 2 2 2 2 1 2 3 5 6 8 9 10 12 15 17 19 19 21 23 25 26 28 29 30 29 30 30 31
40 46 47 47 41 43 32 29 29 25 21 18 16 15 15 11 8 7 6 4 3 2 1 2 2 2 2 4 6 7 8 10 12 14 16 18 19 21 22 24 26 27 28 29 30 31 30 30 32
39 44 49 45 34 40 31 31 23 23 22 19 16 14 13 11 8 6 6 5 6 5 4 4 4 4 5 6 7 8 10 12 14 16 18 20 21 22 24 26 27 28 30 30 31 30 29 31 30
36 42 45 42 44 38 24 23 17 18 16 15 14 14 12 10 11 10 9 8 6 5 4 3 4 5 6 7 8 10 11 13 15 17 20 21 22 24 26 28 29 30 30 30 30 30 30 30 31
Wind_Direction
273 274 277 279 268 268 258 262 259 281 276 286 286 277 284 300 306 308 12 27 79 90 106 104 96 97 106 112 110 108 106 101 97 91 88 85 78 71 65 63 67 71 73 77 75 74 71 72 73
271 271 267 267 261 258 260 259 268 273 289 284 283 282 285 299 319 334 18 53 88 94 108 107 101 100 105 112 115 112 106 102 99 95 92 90 84 75 68 58 64 67 68 73 76 69 69 72 75
275 270 263 259 255 255 254 261 267 269 288 280 283 280 296 303 304 308 344 76 88 94 111 105 106 101 102 109 113 113 109 104 100 100 97 90 83 76 58 51 55 64 68 73 75 68 66 69 75
277 267 262 256 256 255 251 253 277 267 285 283 284 281 290 295 292 298 341 86 84 100 112 107 107 106 105 110 114 114 111 106 103 100 97 89 83 75 63 66 68 70 75 73 70 66 64 68 75
265 264 260 258 256 256 260 251 279 267 270 276 275 274 294 299 300 301 300 112 91 101 103 115 109 108 106 108 114 115 112 109 106 102 99 90 84 78 69 61 66 73 73 73 71 71 71 76 77
263 260 259 257 260 261 259 258 260 269 265 267 277 275 293 307 299 292 276 229 119 105 98 115 110 107 108 109 113 115 114 112 107 105 100 89 83 79 58 48 56 63 64 68 68 70 73 74 74
259 258 258 259 260 260 262 258 258 262 258 261 281 273 291 294 295 286 261 232 160 123 105 117 117 108 104 108 114 116 116 112 109 105 100 97 95 89 72 60 52 48 50 52 52 59 63 70 64
260 261 259 258 257 258 268 259 262 261 260 264 268 268 274 276 287 279 244 213 199 186 139 132 122 119 114 110 110 113 116 113 113 112 108 105 100 97 88 72 60 59 56 62 64 60 57 41 22
260 259 256 258 260 263 265 265 265 265 262 261 264 260 280 280 277 272 230 216 207 207 171 162 142 126 121 117 111 103 89 98 102 97 92 97 100 100 69 91 83 70 71 56 42 24 5 355 345
250 256 256 262 264 261 264 265 264 259 259 258 258 250 276 270 266 260 236 220 214 212 198 182 172 157 132 119 114 112 108 101 101 97 93 91 77 64 90 28 14 354 347 344 342 336 332 327 324
247 251 264 261 264 266 265 264 261 258 257 256 254 257 266 261 259 256 245 233 218 218 219 192 188 186 174 138 120 114 104 102 84 3 40 349 338 337 321 329 322 318 318 320 318 320 318 315 316
252 256 256 258 267 266 261 264 264 259 258 269 258 257 257 259 257 254 249 235 221 215 220 212 200 195 219 200 178 137 118 119 106 106 92 328 325 327 322 319 325 323 316 318 312 316 315 315 315
249 254 260 261 258 265 266 262 261 261 262 264 265 258 265 272 255 255 254 247 228 217 215 214 202 213 236 261 251 254 269 276 338 6 314 312 310 312 315 314 309 318 317 312 315 313 313 314 313
253 254 256 261 258 260 262 263 263 260 263 258 259 260 263 264 263 254 251 243 231 223 206 205 203 219 226 244 271 274 287 295 300 306 296 293 306 306 305 307 307 324 318 309 313 313 313 314 314
255 252 255 251 257 256 259 260 256 258 258 257 262 262 263 260 257 255 252 243 237 224 219 214 205 201 222 234 267 277 290 292 298 303 305 300 300 302 299 301 310 317 320 318 310 311 311 313 314
248 252 249 251 249 253 252 257 258 257 255 258 262 262 259 258 252 248 251 238 237 223 223 227 219 216 240 255 264 277 288 292 301 302 300 295 299 305 306 307 319 322 323 322 314 311 312 313 314
245 243 246 250 246 246 245 257 258 259 248 256 257 258 258 259 254 254 247 229 208 217 219 217 223 229 229 246 265 269 282 291 304 302 303 304 304 303 312 323 322 325 321 323 322 318 315 314 313
234 242 247 245 243 242 246 250 262 252 258 250 254 254 256 256 249 249 247 228 213 213 221 221 226 237 236 254 270 275 287 289 294 297 307 312 317 323 326 319 319 321 321 321 322 321 319 317 315
245 246 244 248 245 243 246 252 249 260 254 250 249 250 253 250 241 230 241 240 218 216 228 221 218 233 244 261 257 272 278 285 292 303 313 320 326 327 322 315 315 319 321 320 319 317 316 316 316
241 244 244 245 245 242 247 248 247 248 255 245 247 248 246 240 236 227 225 232 210 215 221 225 235 243 249 261 264 279 283 287 297 304 316 320 322 326 323 322 322 322 321 319 318 319 317 318 319
236 237 244 241 241 246 248 248 245 243 244 248 253 244 246 245 228 221 242 234 216 216 215 225 232 238 256 271 276 291 299 303 303 315 319 323 324 324 326 325 326 325 324 321 321 321 320 319 319
233 234 240 234 235 239 243 245 242 239 243 245 246 247 241 237 220 222 235 228 226 223 229 232 233 233 249 232 260 269 289 296 313 318 333 336 335 332 332 332 330 330 329 326 324 324 322 320 319
234 231 232 237 236 241 243 246 243 236 239 237 239 240 239 230 213 210 213 228 221 200 208 221 222 229 238 244 267 282 296 314 319 329 336 334 340 339 337 336 335 334 331 329 325 324 324 322 317
229 230 228 238 236 239 240 238 244 230 231 232 232 231 230 222 221 230 238 195 196 195 170 187 196 211 236 263 285 299 307 316 325 328 327 331 335 339 339 340 338 336 333 331 328 326 325 323 322
223 221 217 224 228 233 231 237 251 232 228 226 222 220 221 215 222 232 219 219 211 202 187 188 203 238 254 281 290 306 313 320 326 331 331 336 337 337 335 334 334 334 333 332 330 329 330 330 329
217 212 213 214 221 226 226 238 234 237 228 229 215 206 212 220 217 215 197 190 199 201 214 219 206 242 301 321 326 331 333 333 336 336 339 338 337 336 335 333 334 335 334 335 334 332 330 330 330
211 216 219 226 232 234 231 229 226 233 232 211 202 207 223 223 198 197 209 206 189 183 189 170 146 41 351 353 349 343 342 342 342 343 343 342 339 342 340 338 337 336 335 336 335 334 333 331 330
214 218 217 228 226 231 226 222 232 227 223 219 218 222 225 219 194 174 160 153 140 136 137 107 92 64 17 350 345 347 350 347 346 345 344 340 342 342 339 337 337 338 336 336 335 334 334 333 330
215 215 220 226 237 224 225 226 235 223 221 218 220 213 203 205 195 176 156 141 127 114 102 88 69 50 27 9 1 354 352 349 347 344 338 337 340 340 339 338 336 334 334 336 336 336 335 333 334
220 217 216 221 226 233 226 234 252 204 209 198 192 184 176 167 149 138 132 127 122 112 95 69 42 26 14 8 0 354 347 343 343 339 333 336 338 338 337 335 334 336 337 338 338 337 336 336 334